sat.trackr.live / text

‹ back to catalog

STARLINK-32549

NORAD 62118 · 2024-222E

PAYLOAD ACTIVE UNKNOWN

§ Identity

Operator
Country
US
Launch date
2024-11-27
Launch site
AFETR
Launch vehicle
Mass (kg)
RCS (m²)

Purposes: comms

External: N2YO · Heavens-Above · Gunter

§ Orbital elements

Epoch: 2026-05-25T03:06:11.852640Z

Period
94.26 min
Inclination
42.9996°
Eccentricity
0.0000653
Mean motion
15.27610819 rev/d
Perigee alt
482.5 km
Apogee alt
483.4 km
Semi-major
6,861.1 km
B*
8.4622e-4
RAAN
64.1323°
Arg perigee
240.2813°
Mean anomaly
119.7974°
Rev number
8,450

§ Raw data

STARLINK-325491 62118U 24222E   26145.12930385  .00023119  00000+0  84622-3 0  99992 62118  42.9996  64.1323 0000653 240.2813 119.7974 15.27610819 84507

JSON: /api/v1/satellites/62118 · /tle

For live sub-satellite position, see the globe view (requires WebGL).

§ Visibility from observer

Set your observer location to see the next 7 days of passes ≥ 10°. The values pass through the URL so the page stays shareable.

No JS? Fill the form by hand. The geolocation button needs JavaScript.